Regional Weather Roundup
Issued by NWS

Home | Current Version | Previous Version | Graphics & Text | Print | Product List | Glossary On
Versions: 1 2 3 4 5 6 7 8 9 10 11 12 13 14 15 16 17 18 19 20 21 22 23 24 25 26 27 28 29 30 31 32 33 34 35 36 37 38 39 40 41 42 43 44 45 46 47 48 49 50
000
ASUS45 KBOU 251607
RWRCO

WEATHER ROUNDUP FOR COLORADO
NATIONAL WEATHER SERVICE DENVER/BOULDER CO
1000 AM MDT SAT APR 25 2015

NOTE: "FAIR" INDICATES FEW OR NO CLOUDS BELOW 12000 FEET WITH NO
SIGNIFICANT WEATHER AND/OR OBSTRUCTIONS TO VISIBILITY.

COZ001>005-013-030-031-251700-
...NORTHWEST COLORADO...

CITY           SKY/WX    TMP DP  RH WIND       PRES   REMARKS
CRAIG          RAIN      37  34  89 W12       29.89R FOG
HAYDEN         CLOUDY    37  32  81 W7        29.87R
MEEKER         LGT SNOW  34  32  92 SW5       29.90R VSB 3/4 WCI  30
MOUNT WERNER   NOT AVBL
STEAMBOAT SPGS CLOUDY    43  34  70 W5        29.84S
WALDEN         CLOUDY    45  28  53 S9        29.84F
$$

COZ006>008-011-251700-
...WEST CENTRAL VALLEYS...

CITY           SKY/WX    TMP DP  RH WIND       PRES   REMARKS
GRAND JUNCTION LGT RAIN  42  42 100 CALM      29.88R
MONTROSE       CLOUDY    51  34  52 CALM      29.88S
EAGLE          MOSUNNY   46  32  57 CALM      29.86F
RIFLE          LGT RAIN  43  39  86 NW15      29.87R
DELTA          CLOUDY    49  41  74 MISG      29.88R
NUCLA          CLOUDY    48  36  61 S12       29.92S
$$

COZ017>023-064>068-251700-
...SOUTHWEST COLORADO...

CITY           SKY/WX    TMP DP  RH WIND       PRES   REMARKS
DURANGO        CLOUDY    45  38  76 S5        29.96S
CORTEZ         CLOUDY    50  37  61 SW13      29.92F
PAGOSA SPRINGS DRIZZLE   40  37  91 CALM      29.99S
TELLURIDE      CLOUDY    39  33  78 SE6       29.97S
WOLF CREEK PAS NOT AVBL
$$

COZ009-010-012-014-032>034-037-058>063-251700-
...CENTRAL COLORADO...

CITY           SKY/WX    TMP DP  RH WIND       PRES   REMARKS
ASPEN          PTSUNNY   47  27  45 CALM      29.85F
BUENA VISTA    PTSUNNY   47  25  41 E3        29.89F
COPPER MTN     PTSUNNY   34  21  60 SW8       29.98S WCI  27
BERTHOUD PASS  FAIR      27  18  69 W17G24    29.99S WCI  14
COTTONWOOD PAS PTSUNNY   45  27  49 CALM      29.94S
GUNNISON       PTSUNNY   39  28  65 CALM      29.96F
KREMMLING      MOSUNNY   46  28  49 CALM      29.87F
LEADVILLE      PTSUNNY   35  20  54 S6        29.91F WCI  30
MONARCH PASS   CLOUDY    27  25  93 MISG      30.10S
SALIDA         PTSUNNY   52  24  33 S10G16    29.96S
SUNLIGHT       LGT SNOW  34  32  93 CALM      29.97S
WILKERSON PASS MOSUNNY   34  23  64 SW9       29.98S WCI  26
$$

COZ069>075-251700-
...SAN LUIS VALLEY/SANGRE DE CRISTO MOUNTAINS...

CITY           SKY/WX    TMP DP  RH WIND       PRES   REMARKS
ALAMOSA        SUNNY     49  25  39 S5        29.92F
LA VETA PASS   MOSUNNY   39  27  60 S9G22     29.97S
SAGUACHE       PTSUNNY   45  27  49 S8        29.94F
$$

COZ035-036-038>040-251700-
...NORTHERN COLORADO FRONT RANGE...

CITY           SKY/WX    TMP DP  RH WIND       PRES   REMARKS
DENVER INTL AP PTSUNNY   61  25  25 SW7       29.74S
DMNS CITY PARK   N/A     62  27  26 SE3G9     29.73S
AURORA         PTSUNNY   60  26  26 S10       29.75F
FRONT RANGE AP MOSUNNY   63  27  25 SW6       29.75S
ERIE MUNI ARPT MOSUNNY   63  29  27 SE5       29.72S
BOULDER MUN AP MOSUNNY   59  34  38 E5        29.72S
CENTENNIAL     PTSUNNY   60  25  26 SW13      29.75F
BROOMFIELD     NOT AVBL
FORT COLLINS   MOSUNNY   57  36  44 SE8       29.74S
LONGMONT       MOSUNNY   63  35  35 E8        29.74S
$$

COZ041-046-047-076>085-087-088-251700-
...PIKES PEAK/PALMER DIVIDE AND SOUTHERN FOOTHILLS...

CITY           SKY/WX    TMP DP  RH WIND       PRES   REMARKS
COLO. SPRINGS  PTSUNNY   60  20  21 MISG      29.79F
A. F. ACADEMY  SUNNY     59  21  22 W15G24    29.77F
ELLICOTT       SUNNY    N/A N/A N/A SW6       29.78S
FALCON         SUNNY     59  18  20 S9        29.82S
FORT CARSON    SUNNY     59  25  26 VRB7      29.76F
LIMON          SUNNY     59  32  36 CALM      29.77S
MONUMENT HILL  MOSUNNY   55  21  26 SW9       29.80S
TRINIDAD       SUNNY     62  25  24 SW14      29.81F
$$

COZ042>045-048>051-090-091-251700-
...NORTHEAST COLORADO...

CITY           SKY/WX    TMP DP  RH WIND       PRES   REMARKS
GREELEY ARPT   SUNNY     61  37  41 SE6       29.74S
AKRON          SUNNY     61  38  42 N10       29.74R
BURLINGTON     SUNNY     63  41  44 N12       29.75R
WRAY           SUNNY     61  45  54 N12       29.72R
STERLING       SUNNY     59  41  51 E3        29.72S
HOLYOKE        SUNNY     61  46  59 N7        29.72S
FORT MORGAN    SUNNY     59  33  37 CALM      29.74S
$$

COZ086-089-092>099-251700-
...SOUTHEAST COLORADO...

CITY           SKY/WX    TMP DP  RH WIND       PRES   REMARKS
PUEBLO         MOSUNNY   66  25  21 W21       29.74F
LA JUNTA       SUNNY     65  29  25 NW12      29.75S
LAMAR          SUNNY     63  34  33 W13       29.73S
SPRINGFIELD      N/A     68  29  23 NW10G17   29.75S
$$



USA.gov is the U.S. government's official web portal to all federal, state and local government web resources and services.